sat.trackr.live / text

‹ back to catalog

STARLINK-37524

NORAD 68842 · 2026-094D

PAYLOAD ACTIVE UNKNOWN

§ Identity

Operator
Country
US
Launch date
2026-04-26
Launch site
AFWTR
Launch vehicle
Mass (kg)
RCS (m²)

Purposes: comms

External: N2YO · Heavens-Above · Gunter

§ Orbital elements

Epoch: 2026-05-25T04:00:03.998880Z

Period
92.95 min
Inclination
97.2844°
Eccentricity
0.0001419
Mean motion
15.49261419 rev/d
Perigee alt
417.9 km
Apogee alt
419.8 km
Semi-major
6,797.0 km
B*
-1.1763e-3
RAAN
159.8796°
Arg perigee
83.0025°
Mean anomaly
28.4727°
Rev number
567

§ Raw data

STARLINK-375241 68842U 26094D   26145.16671295 -.00063714  00000+0 -11763-2 0  99962 68842  97.2844 159.8796 0001419  83.0025  28.4727 15.49261419  5672

JSON: /api/v1/satellites/68842 · /tle

For live sub-satellite position, see the globe view (requires WebGL).

§ Visibility from observer

Set your observer location to see the next 7 days of passes ≥ 10°. The values pass through the URL so the page stays shareable.

No JS? Fill the form by hand. The geolocation button needs JavaScript.